Meteo

Previsioni per il volo, messo gentilmente a disposizione da www.datameteo.com

per info sul servizio, contattare info@datameteo.it


Metar LIMZ

Available data for LIMZ from the past 2 hours
LEVALDIGI
TAF
TAF LIMZ 151700Z 1518/1618 VRB05KT 9999 SCT040

Gif Infrarosso


Gif Nuvole


Ultima immagine Infrarosso


Ultima immagine Nuvole


Gif Pioggia